User: anonymous   Login
Location: Unspecified
(0.0000°N, 0.0000°E)
Time: 09:09:11
(UTC+00:00)
Language:

GONETS M03 - Orbit

View from above orbital plane
View from above orbital plane
View from above satellite
View from above satellite

Ground track
Ground track

The orbit data is extracted from the following two-line orbital elements,

1 38734U 12041B   24259.90515204  .00000072  00000-0  43979-3 0  9995
2 38734  82.4699 105.2157 0017100  23.3492 336.8362 12.44869416551128
Epoch (UTC): 15 September 2024 21:43:25
Eccentricity: 0.0017100
inclination: 82.4699°
perigee height: 1472 km
apogee height: 1499 km
right ascension of ascending node: 105.2157°
argument of perigee: 23.3492°
revolutions per day: 12.44869416
mean anomaly at epoch: 336.8362°
orbit number at epoch: 55112

The dashed part of the orbit path shows where the satellite is in the earth's shadow,  

DLR